TimeAKDT,TemperatureF,Dew PointF,Humidity,Sea Level PressureIn,VisibilityMPH,Wind Direction,Wind SpeedMPH,Gust SpeedMPH,PrecipitationIn,Events,Conditions,WindDirDegrees,DateUTC
12:16 AM,41.0,33.8,76,30.10,10.0,Calm,Calm,-,N/A,,Clear,0,2013-05-24 08:16:00
12:36 AM,39.2,33.8,81,30.10,10.0,Calm,Calm,-,N/A,,Mostly Cloudy,0,2013-05-24 08:36:00
12:56 AM,37.4,30.2,75,30.10,10.0,Calm,Calm,-,N/A,,Scattered Clouds,0,2013-05-24 08:56:00
1:16 AM,35.6,30.2,81,30.10,10.0,Calm,Calm,-,N/A,,Clear,0,2013-05-24 09:16:00
1:36 AM,37.4,30.2,75,30.10,10.0,Calm,Calm,-,N/A,,Mostly Cloudy,0,2013-05-24 09:36:00
1:56 AM,37.4,33.8,87,30.10,10.0,ENE,3.5,-,N/A,,Overcast,70,2013-05-24 09:56:00
2:16 AM,39.2,33.8,81,30.10,10.0,Calm,Calm,-,N/A,,Overcast,0,2013-05-24 10:16:00
2:36 AM,39.2,33.8,81,30.09,10.0,Calm,Calm,-,N/A,,Overcast,0,2013-05-24 10:36:00
2:56 AM,39.2,33.8,81,30.09,10.0,Calm,Calm,-,N/A,,Overcast,0,2013-05-24 10:56:00
3:16 AM,39.2,35.6,87,30.09,10.0,ENE,3.5,-,N/A,,Overcast,60,2013-05-24 11:16:00
3:36 AM,39.2,35.6,87,30.09,10.0,Calm,Calm,-,N/A,,Overcast,0,2013-05-24 11:36:00
3:56 AM,39.2,33.8,81,30.09,10.0,Calm,Calm,-,N/A,,Overcast,0,2013-05-24 11:56:00
4:16 AM,41.0,35.6,81,30.08,10.0,Calm,Calm,-,N/A,,Overcast,0,2013-05-24 12:16:00
4:36 AM,39.2,35.6,87,30.07,10.0,Calm,Calm,-,N/A,,Overcast,0,2013-05-24 12:36:00
4:56 AM,39.2,35.6,87,30.07,10.0,Calm,Calm,-,N/A,,Overcast,0,2013-05-24 12:56:00
5:16 AM,41.0,35.6,81,30.07,10.0,Calm,Calm,-,N/A,,Overcast,0,2013-05-24 13:16:00
5:36 AM,39.2,35.6,87,30.07,10.0,Calm,Calm,-,N/A,,Overcast,0,2013-05-24 13:36:00
5:56 AM,41.0,35.6,81,30.07,10.0,Calm,Calm,-,N/A,,Overcast,0,2013-05-24 13:56:00
6:16 AM,42.8,35.6,76,30.06,10.0,Calm,Calm,-,N/A,,Mostly Cloudy,0,2013-05-24 14:16:00
6:36 AM,42.8,37.4,81,30.06,10.0,Calm,Calm,-,N/A,,Mostly Cloudy,0,2013-05-24 14:36:00
6:56 AM,44.6,37.4,76,30.06,10.0,Calm,Calm,-,N/A,,Overcast,0,2013-05-24 14:56:00
7:16 AM,46.4,37.4,71,30.06,10.0,WSW,3.5,-,N/A,,Overcast,250,2013-05-24 15:16:00
7:36 AM,46.4,39.2,76,30.06,10.0,West,4.6,-,N/A,,Mostly Cloudy,260,2013-05-24 15:36:00
7:56 AM,48.2,37.4,66,30.06,10.0,WSW,3.5,-,N/A,,Partly Cloudy,250,2013-05-24 15:56:00
8:16 AM,48.2,37.4,66,30.06,10.0,Calm,Calm,-,N/A,,Clear,0,2013-05-24 16:16:00
8:36 AM,48.2,37.4,66,30.05,10.0,Calm,Calm,-,N/A,,Clear,0,2013-05-24 16:36:00
8:56 AM,51.8,39.2,62,30.05,10.0,West,6.9,-,N/A,,Clear,280,2013-05-24 16:56:00
9:16 AM,51.8,37.4,58,30.05,10.0,West,4.6,-,N/A,,Clear,270,2013-05-24 17:16:00
9:36 AM,51.8,37.4,58,30.04,10.0,NW,3.5,-,N/A,,Clear,310,2013-05-24 17:36:00
9:56 AM,53.6,37.4,54,30.04,10.0,West,4.6,-,N/A,,Clear,270,2013-05-24 17:56:00
10:16 AM,53.6,37.4,54,30.03,10.0,WNW,4.6,-,N/A,,Clear,300,2013-05-24 18:16:00
10:36 AM,55.4,37.4,51,30.03,10.0,NW,6.9,-,N/A,,Clear,310,2013-05-24 18:36:00
10:56 AM,55.4,37.4,51,30.03,10.0,West,8.1,-,N/A,,Clear,270,2013-05-24 18:56:00
11:16 AM,55.4,37.4,51,30.02,10.0,WSW,8.1,-,N/A,,Clear,250,2013-05-24 19:16:00
11:36 AM,55.4,39.2,54,30.02,10.0,West,10.4,-,N/A,,Clear,280,2013-05-24 19:36:00
11:56 AM,55.4,37.4,51,30.02,10.0,WSW,13.8,-,N/A,,Clear,250,2013-05-24 19:56:00
12:16 PM,57.2,39.2,51,30.02,10.0,West,13.8,-,N/A,,Clear,270,2013-05-24 20:16:00
12:36 PM,57.2,39.2,51,30.02,10.0,West,11.5,-,N/A,,Clear,270,2013-05-24 20:36:00
12:56 PM,57.2,39.2,51,30.01,10.0,WSW,9.2,-,N/A,,Clear,240,2013-05-24 20:56:00
1:16 PM,57.2,39.2,51,30.00,10.0,WSW,12.7,-,N/A,,Clear,250,2013-05-24 21:16:00
1:36 PM,59.0,39.2,48,30.00,10.0,West,11.5,-,N/A,,Clear,270,2013-05-24 21:36:00
1:56 PM,60.8,37.4,42,30.00,10.0,WNW,10.4,-,N/A,,Clear,300,2013-05-24 21:56:00
2:16 PM,60.8,37.4,42,29.99,10.0,West,13.8,18.4,N/A,,Clear,270,2013-05-24 22:16:00
2:36 PM,60.8,37.4,42,29.99,10.0,West,13.8,-,N/A,,Clear,280,2013-05-24 22:36:00
2:56 PM,60.8,37.4,42,29.99,10.0,WNW,12.7,-,N/A,,Clear,290,2013-05-24 22:56:00
3:16 PM,60.8,37.4,42,29.99,10.0,West,13.8,18.4,N/A,,Clear,270,2013-05-24 23:16:00
3:36 PM,60.8,37.4,42,29.99,10.0,West,15.0,-,N/A,,Clear,270,2013-05-24 23:36:00
3:56 PM,60.8,35.6,39,29.98,10.0,West,13.8,-,N/A,,Clear,270,2013-05-24 23:56:00
4:16 PM,60.8,37.4,42,29.98,10.0,West,13.8,-,N/A,,Clear,280,2013-05-25 00:16:00
4:36 PM,60.8,37.4,42,29.98,10.0,West,13.8,-,N/A,,Clear,270,2013-05-25 00:36:00
4:56 PM,62.6,37.4,39,29.98,10.0,West,13.8,18.4,N/A,,Clear,280,2013-05-25 00:56:00
5:16 PM,62.6,37.4,39,29.98,10.0,WNW,11.5,-,N/A,,Clear,300,2013-05-25 01:16:00
5:36 PM,62.6,37.4,39,29.98,10.0,WNW,12.7,-,N/A,,Clear,300,2013-05-25 01:36:00
5:56 PM,60.8,37.4,42,29.98,10.0,West,16.1,-,N/A,,Clear,270,2013-05-25 01:56:00
6:16 PM,60.8,37.4,42,29.98,10.0,West,13.8,19.6,N/A,,Clear,270,2013-05-25 02:16:00
6:36 PM,60.8,39.2,45,29.97,10.0,West,11.5,-,N/A,,Clear,280,2013-05-25 02:36:00
6:56 PM,60.8,37.4,42,29.97,10.0,West,12.7,-,N/A,,Scattered Clouds,260,2013-05-25 02:56:00
7:16 PM,60.8,37.4,42,29.97,10.0,West,12.7,-,N/A,,Partly Cloudy,270,2013-05-25 03:16:00
7:36 PM,60.8,37.4,42,29.97,10.0,West,13.8,-,N/A,,Clear,260,2013-05-25 03:36:00
7:56 PM,60.8,37.4,42,29.96,10.0,West,11.5,-,N/A,,Clear,270,2013-05-25 03:56:00
8:16 PM,60.8,37.4,42,29.97,10.0,West,10.4,-,N/A,,Partly Cloudy,260,2013-05-25 04:16:00
8:36 PM,57.2,37.4,48,29.97,10.0,West,11.5,-,N/A,,Mostly Cloudy,270,2013-05-25 04:36:00
8:56 PM,57.2,37.4,48,29.97,10.0,West,10.4,-,N/A,,Mostly Cloudy,260,2013-05-25 04:56:00
9:16 PM,55.4,37.4,51,29.97,10.0,West,10.4,-,N/A,,Mostly Cloudy,260,2013-05-25 05:16:00
9:36 PM,55.4,37.4,51,29.97,10.0,West,6.9,-,N/A,,Overcast,260,2013-05-25 05:36:00
9:56 PM,53.6,37.4,54,29.98,10.0,West,6.9,-,N/A,,Scattered Clouds,270,2013-05-25 05:56:00
10:16 PM,53.6,37.4,54,29.98,10.0,Calm,Calm,-,N/A,,Scattered Clouds,0,2013-05-25 06:16:00
10:36 PM,53.6,37.4,54,29.98,10.0,West,4.6,-,N/A,,Overcast,270,2013-05-25 06:36:00
10:56 PM,53.6,37.4,54,29.98,10.0,Calm,Calm,-,N/A,,Overcast,0,2013-05-25 06:56:00
11:16 PM,51.8,35.6,54,29.98,10.0,WSW,3.5,-,N/A,,Overcast,250,2013-05-25 07:16:00
11:36 PM,51.8,35.6,54,29.98,10.0,Calm,Calm,-,N/A,,Mostly Cloudy,0,2013-05-25 07:36:00
11:56 PM,51.8,35.6,54,29.99,10.0,Calm,Calm,-,N/A,,Mostly Cloudy,0,2013-05-25 07:56:00